Terminal Aerodrome Forecast
Issued by NWS

Home | Current Version | Previous Version | Graphics & Text | Print | Product List | Glossary On
Versions: 1 2 3 4 5 6 7 8 9 10 11 12 13 14 15 16 17 18
064
FTUS43 KTOP 020524
TAFFOE
TAF
KFOE 020524Z 0206/0306 03002KT P6SM FEW250=

USA.gov is the U.S. government's official web portal to all federal, state and local government web resources and services.